IK0XIH-3 Latina IT current weather conditions

sailwx.info

Wind from 311

Air temperature 6.1° C
Dewpoint 5.4° C

Last reported at 2020-Jan-27 08:08 UTC.
Time now 2020-Jan-27 09:10 UTC

Location: N 41°30' E 012°55'.
View on Google Maps.

See reports from other nearby stations

  
Tides and Currents Weather Stations Pressure Air Temp Water Temp Dewpoint Dewpoint Depression Visibility Wind Speed Wind Dir Waves Ship Positions
date/time (UTC)wind fromknots sea level pressurealtimeterstation pressurevisibilityair tempwater tempwave heightnotes
2020-Jan-27 08:08 311 6.1
2020-Jan-27 08:03 309 5.6
2020-Jan-27 07:53 309 5.0
2020-Jan-27 07:48 309 4.4
2020-Jan-27 07:43 309 5.0
2020-Jan-27 07:38 309 5.0
2020-Jan-27 07:33 309 4.4
2020-Jan-27 07:28 309 3.3
2020-Jan-27 07:23 309 2.8
2020-Jan-27 07:18 309 3.3
2020-Jan-27 07:13 309 3.3
2020-Jan-27 07:08 309 2.8
2020-Jan-27 07:03 309 2.8
2020-Jan-27 06:58 309 2.8
2020-Jan-27 06:53 309 2.8
2020-Jan-27 06:48 309 2.8
2020-Jan-27 06:43 309 2.8
2020-Jan-27 06:38 309 2.8
2020-Jan-27 06:33 066 2.8
2020-Jan-27 06:28 066 2.8
2020-Jan-27 06:23 067 3.3
2020-Jan-27 06:18 067 2.8
2020-Jan-27 06:13 067 3.3
2020-Jan-27 06:08 067 3.3
2020-Jan-27 06:03 067 3.3
2020-Jan-27 05:58 067 2.8
2020-Jan-27 05:53 067 3.3
2020-Jan-27 05:48 067 3.3
2020-Jan-27 05:43 067 2.8
2020-Jan-27 05:38 067 2.2
2020-Jan-27 05:33 056 2.8
2020-Jan-27 05:28 275 3.3
2020-Jan-27 05:23 275 3.3
2020-Jan-27 05:18 275 3.3
2020-Jan-27 05:13 275 3.3
2020-Jan-27 05:08 275 3.3
2020-Jan-27 05:03 275 3.9
2020-Jan-27 04:58 275 3.9
2020-Jan-27 04:53 275 3.3
2020-Jan-27 04:48 275 3.3
2020-Jan-27 04:43 275 3.9
2020-Jan-27 04:38 072 3.9
2020-Jan-27 04:33 073 4.4
2020-Jan-27 04:28 073 4.4
2020-Jan-27 04:23 073 4.4
2020-Jan-27 04:18 073 4.4
2020-Jan-27 04:13 073 3.9
2020-Jan-27 04:08 073 3.9
2020-Jan-27 04:03 073 3.9
2020-Jan-27 03:58 073 3.9
2020-Jan-27 03:53 073 3.9
2020-Jan-27 03:48 073 3.9
2020-Jan-27 03:43 055 3.9
2020-Jan-27 03:38 055 3.9
2020-Jan-27 03:33 055 4.4
2020-Jan-27 03:28 055 4.4
2020-Jan-27 03:23 055 4.4
2020-Jan-27 03:18 055 4.4
2020-Jan-27 03:13 055 4.4
2020-Jan-27 03:08 055 4.4
2020-Jan-27 03:03 055 3.9
2020-Jan-27 02:58 055 3.9
2020-Jan-27 02:53 055 3.9
2020-Jan-27 02:48 057 4.4
2020-Jan-27 02:43 057 4.4
2020-Jan-27 02:38 057 3.9
2020-Jan-27 02:33 057 3.9
2020-Jan-27 02:28 057 3.9
2020-Jan-27 02:23 057 4.4
2020-Jan-27 02:18 057 3.9
2020-Jan-27 02:13 057 4.4
2020-Jan-27 02:08 057 4.4
2020-Jan-27 02:03 279 4.4
2020-Jan-27 01:58 279 5.0
2020-Jan-27 01:53 279 5.0
2020-Jan-27 01:48 279 4.4
2020-Jan-27 01:43 279 5.0
2020-Jan-27 01:38 279 5.0
2020-Jan-27 01:33 279 5.0
2020-Jan-27 01:28 279 5.0
2020-Jan-27 01:23 279 5.0
2020-Jan-27 01:18 279 4.4
2020-Jan-27 01:13 279 4.4
2020-Jan-27 01:08 279 4.4
2020-Jan-27 01:03 279 4.4
2020-Jan-27 00:58 279 4.4
2020-Jan-27 00:53 279 4.4
2020-Jan-27 00:48 279 4.4
2020-Jan-27 00:43 279 4.4
2020-Jan-27 00:38 279 4.4
2020-Jan-27 00:33 279 4.4
2020-Jan-27 00:28 279 4.4
2020-Jan-27 00:23 305 4.4
2020-Jan-27 00:18 329 4.4
2020-Jan-27 00:13 330 4.4
2020-Jan-27 00:08 330 4.4
2020-Jan-27 00:03 330 4.4
2020-Jan-26 23:58 330 4.4
2020-Jan-26 23:53 330 4.4
2020-Jan-26 23:48 330 4.4
2020-Jan-26 23:43 330 4.4
2020-Jan-26 23:38 330 4.4
2020-Jan-26 23:33 330 4.4
2020-Jan-26 23:28 330 5.0
2020-Jan-26 23:23 329 5.0
2020-Jan-26 23:18 330 4.4
2020-Jan-26 23:13 330 4.4
2020-Jan-26 23:08 016 4.4
2020-Jan-26 23:03 017 4.4
2020-Jan-26 22:58 017 4.4
2020-Jan-26 22:53 351 5.0
2020-Jan-26 22:48 296 5.0
2020-Jan-26 22:43 296 5.0
2020-Jan-26 22:38 341 5.0
2020-Jan-26 22:33 5.0
2020-Jan-26 22:28 071 5.0
2020-Jan-26 22:23 071 5.6
2020-Jan-26 22:18 071 5.6
2020-Jan-26 22:13 071 6.1
2020-Jan-26 22:08 071 5.6
2020-Jan-26 22:03 074 6.1
2020-Jan-26 21:58 074 6.1
2020-Jan-26 21:53 074 5.6
2020-Jan-26 21:48 074 5.6
2020-Jan-26 21:43 074 5.6
2020-Jan-26 21:38 074 6.1
2020-Jan-26 21:33 074 6.1
2020-Jan-26 21:28 074 0 gusting 1 6.1
2020-Jan-26 21:23 074 7.2
2020-Jan-26 21:18 074 6.7
2020-Jan-26 21:13 074 6.7
2020-Jan-26 21:08 074 6.7
2020-Jan-26 21:03 074 6.7
2020-Jan-26 20:58 074 7.2
2020-Jan-26 20:53 074 6.7
2020-Jan-26 20:48 074 7.2
2020-Jan-26 20:43 074 0 gusting 1 7.2
2020-Jan-26 20:38 074 7.2
2020-Jan-26 20:33 074 7.2
2020-Jan-26 20:28 074 6.7
2020-Jan-26 20:23 074 1 gusting 2 7.2
2020-Jan-26 20:18 074 7.8
2020-Jan-26 20:13 074 7.8
2020-Jan-26 20:08 074 0 gusting 2 7.2
2020-Jan-26 20:03 074 7.2
2020-Jan-26 19:58 074 7.8
2020-Jan-26 19:53 074 7.8
2020-Jan-26 19:48 074 7.8
2020-Jan-26 19:43 074 7.8
2020-Jan-26 19:38 074 8.3
2020-Jan-26 19:33 074 8.3
2020-Jan-26 19:28 074 8.3
2020-Jan-26 19:23 074 8.3
2020-Jan-26 19:18 074 8.3
2020-Jan-26 19:13 074 8.3
2020-Jan-26 19:08 074 8.3
2020-Jan-26 18:58 074 0 gusting 1 8.9
2020-Jan-26 18:53 074 0 gusting 1 8.3
2020-Jan-26 18:48 074 0 gusting 2 8.3
2020-Jan-26 18:43 074 1 gusting 3 7.8
2020-Jan-26 18:38 016 1 gusting 1 8.3
2020-Jan-26 18:33 298 8.9
2020-Jan-26 18:28 298 8.9
2020-Jan-26 18:23 298 8.9
2020-Jan-26 18:18 298 9.4
2020-Jan-26 18:13 298 0 gusting 2 9.4
2020-Jan-26 18:08 300 0 gusting 1 10.0
2020-Jan-26 18:03 300 10.0
2020-Jan-26 17:58 300 10.0
2020-Jan-26 17:53 300 10.0
2020-Jan-26 17:48 300 0 gusting 1 10.0
2020-Jan-26 17:43 295 10.0
2020-Jan-26 17:38 294 10.6
2020-Jan-26 17:33 295 10.6
2020-Jan-26 17:28 294 10.6
2020-Jan-26 17:23 294 1 gusting 4 11.1
2020-Jan-26 17:18 294 3 gusting 3 10.6
2020-Jan-26 17:13 307 1 gusting 2 10.6
2020-Jan-26 17:08 302 10.6
2020-Jan-26 17:03 301 1 gusting 5 11.1
2020-Jan-26 16:58 287 2 gusting 4 11.1
2020-Jan-26 16:53 294 2 gusting 3 11.1
2020-Jan-26 16:48 288 2 gusting 2 11.1
2020-Jan-26 16:43 288 0 gusting 1 11.7
2020-Jan-26 16:38 288 1 gusting 2 11.7
2020-Jan-26 16:33 286 1 gusting 2 11.7
2020-Jan-26 16:28 285 0 gusting 2 12.2
2020-Jan-26 16:23 272 1 gusting 2 12.2
2020-Jan-26 16:18 261 12.2
2020-Jan-26 16:13 261 12.8
2020-Jan-26 16:08 257 12.8
2020-Jan-26 16:03 189 13.3
2020-Jan-26 15:58 189 13.3
2020-Jan-26 15:53 189 13.3
2020-Jan-26 15:48 189 13.3
2020-Jan-26 15:43 189 13.3
2020-Jan-26 15:38 189 13.3
2020-Jan-26 15:33 189 1 gusting 2 13.3
2020-Jan-26 15:28 240 2 gusting 3 13.9
2020-Jan-26 15:23 173 13.3
2020-Jan-26 15:18 194 3 gusting 5 13.3
2020-Jan-26 15:13 146 5 gusting 5 13.3
2020-Jan-26 15:08 185 3 gusting 5 13.9
2020-Jan-26 15:03 161 0 gusting 6 13.9
2020-Jan-26 14:58 195 4 gusting 5 13.9
2020-Jan-26 14:53 171 3 gusting 6 13.9
2020-Jan-26 14:48 162 4 gusting 5 13.9
2020-Jan-26 14:43 164 2 gusting 5 13.9
2020-Jan-26 14:38 159 4 gusting 6 13.9
2020-Jan-26 14:33 126 3 gusting 6 13.9
2020-Jan-26 14:28 159 4 gusting 6 13.9
2020-Jan-26 14:23 146 0 gusting 6 13.9
2020-Jan-26 14:18 121 4 gusting 6 13.9
2020-Jan-26 14:13 122 3 gusting 7 13.9
2020-Jan-26 14:08 159 4 gusting 7 13.9
2020-Jan-26 14:03 151 4 gusting 8 13.9
2020-Jan-26 13:58 129 6 gusting 10 13.9
2020-Jan-26 13:53 094 7 gusting 8 13.9
2020-Jan-26 13:48 127 5 gusting 10 14.4
2020-Jan-26 13:43 140 4 gusting 10 14.4
2020-Jan-26 13:38 148 2 gusting 11 14.4
2020-Jan-26 13:33 105 6 gusting 11 13.9
2020-Jan-26 13:28 125 4 gusting 8 13.9
2020-Jan-26 13:23 143 6 gusting 8 13.9
2020-Jan-26 13:18 115 4 gusting 10 13.9
2020-Jan-26 13:13 133 7 gusting 9 13.9
2020-Jan-26 13:08 138 6 gusting 8 13.9
2020-Jan-26 13:03 171 4 gusting 8 13.9
2020-Jan-26 12:58 155 7 gusting 8 13.9
2020-Jan-26 12:53 151 3 gusting 7 13.9
2020-Jan-26 12:48 112 6 gusting 8 13.3
2020-Jan-26 12:43 144 5 gusting 6 13.3
2020-Jan-26 12:38 115 2 gusting 7 13.3
2020-Jan-26 12:33 129 5 gusting 6 13.3
2020-Jan-26 12:28 129 5 gusting 8 13.3
2020-Jan-26 12:23 102 6 gusting 7 13.3
2020-Jan-26 12:18 112 4 gusting 6 13.3
2020-Jan-26 12:13 121 4 gusting 9 13.3
2020-Jan-26 12:08 106 6 gusting 9 12.8
2020-Jan-26 12:03 107 2 gusting 9 12.8
2020-Jan-26 11:58 092 6 gusting 7 12.8
2020-Jan-26 11:53 113 6 gusting 8 12.8
2020-Jan-26 11:48 146 4 gusting 8 12.8
2020-Jan-26 11:43 114 6 gusting 11 12.8
2020-Jan-26 11:38 112 6 gusting 9 12.8
2020-Jan-26 11:33 105 6 gusting 9 12.8
2020-Jan-26 11:28 123 6 gusting 8 12.8
2020-Jan-26 11:23 103 4 gusting 8 12.8
2020-Jan-26 11:18 103 6 gusting 9 12.2
2020-Jan-26 11:13 108 4 gusting 6 12.2
2020-Jan-26 11:08 107 3 gusting 6 12.2
2020-Jan-26 11:03 126 2 gusting 6 12.2
2020-Jan-26 10:58 100 11.7
2020-Jan-26 10:53 118 11.7
2020-Jan-26 10:48 094 11.7
2020-Jan-26 10:43 121 11.7
2020-Jan-26 10:38 114 11.7
2020-Jan-26 10:33 111 11.7
2020-Jan-26 10:28 131 11.7
2020-Jan-26 10:23 106 11.7
2020-Jan-26 10:18 115 11.7
2020-Jan-26 10:13 119 11.7
2020-Jan-26 10:08 109 11.7
2020-Jan-26 10:03 111 11.1
2020-Jan-26 09:58 103 11.1
2020-Jan-26 09:53 097 11.1
2020-Jan-26 09:48 103 10.6
2020-Jan-26 09:43 094 10.6
2020-Jan-26 09:38 104 10.6
2020-Jan-26 09:33 101 10.6
2020-Jan-26 09:28 116 10.6
2020-Jan-26 09:23 113 10.6
2020-Jan-26 09:18 115 10.0
2020-Jan-26 09:13 123 10.0
2020-Jan-26 09:08 132 10.0
2020-Jan-26 09:03 134 2 gusting 5 10.0
2020-Jan-26 08:58 121 10.0
2020-Jan-26 08:53 158 1 gusting 3 10.0
2020-Jan-26 08:48 138 0 gusting 0 10.0
2020-Jan-26 08:43 110 10.0
2020-Jan-26 08:38 124 10.0
2020-Jan-26 08:33 112 10.0
2020-Jan-26 08:28 084 10.0
2020-Jan-26 08:23 073 10.0
2020-Jan-26 08:18 082 10.0
2020-Jan-26 08:13 067 10.0
2020-Jan-26 08:08 085 10.0
2020-Jan-26 08:03 065 10.0
2020-Jan-26 07:58 050 9.4
2020-Jan-26 07:53 041 10.0
2020-Jan-26 07:48 067 10.0
2020-Jan-26 07:38 228 10.0
2020-Jan-26 07:33 229 10.0
2020-Jan-26 07:28 254 10.0
2020-Jan-26 07:23 215 10.0
2020-Jan-26 07:18 246 10.0
2020-Jan-26 07:13 273 10.0
2020-Jan-26 07:08 271 9.4
2020-Jan-26 07:03 284 9.4
2020-Jan-26 06:58 293 9.4
2020-Jan-26 06:53 313 9.4
2020-Jan-26 06:48 017 10.0
2020-Jan-26 06:43 019 10.0
2020-Jan-26 06:38 015 9.4
2020-Jan-26 06:33 345 9.4
2020-Jan-26 06:28 019 10.0
2020-Jan-26 06:23 019 9.4
2020-Jan-26 06:18 019 9.4
2020-Jan-26 06:13 019 9.4
2020-Jan-26 06:08 019 9.4
2020-Jan-26 06:03 019 9.4
2020-Jan-26 05:58 8.9
2020-Jan-26 05:53 8.9
2020-Jan-26 05:48 8.9
2020-Jan-26 05:43 8.9
2020-Jan-26 05:38 8.9
2020-Jan-26 05:33 8.9
2020-Jan-26 05:28 8.9
2020-Jan-26 05:23 8.9
2020-Jan-26 05:18 8.9
2020-Jan-26 05:13 8.9
2020-Jan-26 05:08 8.9
2020-Jan-26 05:03 012 8.9
2020-Jan-26 04:58 8.9
2020-Jan-26 04:53 346 8.3
2020-Jan-26 04:48 111 8.3
2020-Jan-26 04:43 111 8.9
2020-Jan-26 04:38 136 8.9
2020-Jan-26 04:33 166 8.9
2020-Jan-26 04:28 166 8.9
2020-Jan-26 04:23 167 8.9
2020-Jan-26 04:18 076 8.9
2020-Jan-26 04:13 084 8.3
2020-Jan-26 04:08 287 8.3
2020-Jan-26 04:03 287 8.3
2020-Jan-26 03:58 287 8.3
2020-Jan-26 03:53 272 7.8
2020-Jan-26 03:48 271 7.8
2020-Jan-26 03:43 254 7.8
2020-Jan-26 03:38 263 7.2
2020-Jan-26 03:33 350 7.2
2020-Jan-26 03:28 350 7.8
2020-Jan-26 03:23 350 7.8
2020-Jan-26 03:18 350 7.2
2020-Jan-26 03:13 350 7.2
2020-Jan-26 03:08 350 7.8
2020-Jan-26 03:03 350 7.8
2020-Jan-26 02:58 350 7.2
2020-Jan-26 02:53 350 7.2
2020-Jan-26 02:48 350 7.2
2020-Jan-26 02:43 350 6.7
2020-Jan-26 02:38 350 6.7
2020-Jan-26 02:33 350 6.7
2020-Jan-26 02:28 350 6.7
2020-Jan-26 02:23 350 6.7
2020-Jan-26 02:18 350 6.7
2020-Jan-26 02:13 350 6.7
2020-Jan-26 02:08 350 6.1
2020-Jan-26 02:03 350 6.1
2020-Jan-26 01:58 350 6.1
2020-Jan-26 01:53 350 6.1
2020-Jan-26 01:48 351 6.7
2020-Jan-26 01:43 355 6.1
2020-Jan-26 01:38 137 6.1
2020-Jan-26 01:33 137 6.1
2020-Jan-26 01:28 137 6.1
2020-Jan-26 01:23 137 6.1
2020-Jan-26 01:18 137 6.1
2020-Jan-26 01:13 137 6.1
2020-Jan-26 01:08 137 6.1
2020-Jan-26 01:03 137 5.6
2020-Jan-26 00:58 137 6.1
2020-Jan-26 00:53 137 6.1
2020-Jan-26 00:48 137 6.1
2020-Jan-26 00:43 137 6.1
2020-Jan-26 00:38 137 6.7
2020-Jan-26 00:33 137 6.7
2020-Jan-26 00:28 137 6.7
2020-Jan-26 00:23 137 6.1
2020-Jan-26 00:18 100 6.1
2020-Jan-26 00:13 100 6.7
2020-Jan-26 00:08 100 6.7
2020-Jan-26 00:03 101 6.7
2020-Jan-25 23:58 101 6.7
2020-Jan-25 23:53 101 6.7
2020-Jan-25 23:48 101 6.7
2020-Jan-25 23:43 100 6.7
2020-Jan-25 23:38 100 6.7
2020-Jan-25 23:33 100 6.7
2020-Jan-25 23:28 100 6.7
2020-Jan-25 23:23 100 6.7
2020-Jan-25 23:18 100 7.2
2020-Jan-25 23:13 100 7.2
2020-Jan-25 23:08 100 7.2
2020-Jan-25 23:03 100 7.2
2020-Jan-25 22:58 100 7.2
2020-Jan-25 22:53 100 7.2
2020-Jan-25 22:48 100 7.2
2020-Jan-25 22:43 100 7.8
2020-Jan-25 22:38 100 7.2
2020-Jan-25 22:33 100 7.2
2020-Jan-25 22:28 100 7.2
2020-Jan-25 22:23 100 7.2
2020-Jan-25 22:18 100 7.2
2020-Jan-25 22:13 100 7.2
2020-Jan-25 22:08 100 7.2
2020-Jan-25 22:03 100 7.8
2020-Jan-25 21:58 100 7.8
2020-Jan-25 21:53 100 7.8
2020-Jan-25 21:48 100 7.8
2020-Jan-25 21:43 100 7.8
2020-Jan-25 21:38 100 7.8
2020-Jan-25 21:33 100 7.2
2020-Jan-25 21:28 280 7.8
2020-Jan-25 21:23 280 7.8
2020-Jan-25 21:18 280 7.8
2020-Jan-25 21:13 280 7.8
2020-Jan-25 21:08 082 7.8
2020-Jan-25 21:03 011 7.8
2020-Jan-25 20:58 346 8.3
2020-Jan-25 20:53 346 7.8
2020-Jan-25 20:48 346 7.8
2020-Jan-25 20:43 346 7.8
2020-Jan-25 20:38 346 8.3
2020-Jan-25 20:33 346 8.3
2020-Jan-25 20:28 325 8.3
2020-Jan-25 20:23 322 8.3
2020-Jan-25 20:18 317 8.3
2020-Jan-25 20:13 317 8.3
2020-Jan-25 20:08 317 8.3
2020-Jan-25 20:03 317 8.9
2020-Jan-25 19:58 317 8.9
2020-Jan-25 19:53 098 8.9
2020-Jan-25 19:48 098 9.4
2020-Jan-25 19:43 097 9.4
2020-Jan-25 19:38 098 9.4
2020-Jan-25 19:33 098 9.4
2020-Jan-25 19:28 098 9.4
2020-Jan-25 19:23 147 10.0
2020-Jan-25 19:18 148 10.0
2020-Jan-25 19:13 148 10.0
2020-Jan-25 19:08 148 10.6
2020-Jan-25 19:03 148 10.6
2020-Jan-25 18:58 154 10.6
2020-Jan-25 18:53 154 10.6
2020-Jan-25 18:48 154 10.6
2020-Jan-25 18:43 154 11.1
2020-Jan-25 18:38 154 11.1
2020-Jan-25 18:33 154 11.1
2020-Jan-25 18:28 154 0 gusting 1 11.1
2020-Jan-25 18:23 154 11.1
2020-Jan-25 18:18 153 11.1
2020-Jan-25 18:13 153 11.1
2020-Jan-25 18:08 153 11.1
2020-Jan-25 18:03 153 11.1
2020-Jan-25 17:58 153 11.1
2020-Jan-25 17:53 153 11.1
2020-Jan-25 17:48 153 11.1
2020-Jan-25 17:43 153 11.1
2020-Jan-25 17:38 153 11.1
2020-Jan-25 17:33 153 11.7
2020-Jan-25 17:28 153 11.7
2020-Jan-25 17:23 153 12.2
2020-Jan-25 17:18 153 0 gusting 1 12.2
2020-Jan-25 17:13 153 12.2
2020-Jan-25 17:08 153 0 gusting 2 12.2
2020-Jan-25 17:03 153 1 gusting 2 12.2
2020-Jan-25 16:58 153 1 gusting 2 12.2
2020-Jan-25 16:53 152 1 gusting 2 12.8
2020-Jan-25 16:48 152 1 gusting 2 12.8
2020-Jan-25 16:43 152 0 gusting 2 12.8
2020-Jan-25 16:38 152 0 gusting 1 12.8
2020-Jan-25 16:33 152 1 gusting 2 12.8
2020-Jan-25 16:28 152 1 gusting 2 13.3
2020-Jan-25 16:23 152 1 gusting 4 13.3
2020-Jan-25 16:18 145 2 gusting 4 13.3
2020-Jan-25 16:13 159 2 gusting 3 13.3
2020-Jan-25 16:08 146 1 gusting 3 13.9
2020-Jan-25 16:03 149 1 gusting 3 13.9
2020-Jan-25 15:58 155 2 gusting 3 13.9
2020-Jan-25 15:53 155 2 gusting 4 13.9
2020-Jan-25 15:48 144 1 gusting 5 13.9
2020-Jan-25 15:43 163 3 gusting 6 13.9
2020-Jan-25 15:38 169 2 gusting 4 13.9
2020-Jan-25 15:33 178 1 gusting 4 14.4
2020-Jan-25 15:28 154 4 gusting 5 14.4
2020-Jan-25 15:23 163 3 gusting 6 14.4
2020-Jan-25 15:18 156 4 gusting 6 14.4
2020-Jan-25 15:13 157 4 gusting 5 14.4
2020-Jan-25 15:08 140 4 gusting 4 14.4
2020-Jan-25 15:03 129 3 gusting 5 14.4
2020-Jan-25 14:58 130 2 gusting 3 14.4
2020-Jan-25 14:53 146 3 gusting 4 14.4
2020-Jan-25 14:48 121 2 gusting 4 14.4
2020-Jan-25 14:43 134 2 gusting 4 14.4
2020-Jan-25 14:38 128 1 gusting 4 14.4
2020-Jan-25 14:33 144 4 gusting 5 14.4
2020-Jan-25 14:28 156 2 gusting 6 14.4
2020-Jan-25 14:23 124 2 gusting 5 14.4
2020-Jan-25 14:18 143 3 gusting 7 14.4
2020-Jan-25 14:13 142 4 gusting 6 14.4
2020-Jan-25 14:08 126 3 gusting 6 14.4
2020-Jan-25 14:03 119 6 gusting 7 14.4
2020-Jan-25 13:58 142 4 gusting 8 14.4
2020-Jan-25 13:53 153 5 gusting 7 14.4
2020-Jan-25 13:48 148 5 gusting 8 14.4
2020-Jan-25 13:43 121 4 gusting 8 14.4
2020-Jan-25 13:38 144 7 gusting 8 14.4
2020-Jan-25 13:33 123 6 gusting 7 14.4
2020-Jan-25 13:28 137 5 gusting 7 14.4
2020-Jan-25 13:23 108 6 gusting 7 14.4
2020-Jan-25 13:18 135 3 gusting 7 14.4
2020-Jan-25 13:13 126 3 gusting 7 14.4
2020-Jan-25 13:08 136 5 gusting 8 14.4
2020-Jan-25 13:03 143 3 gusting 7 14.4
2020-Jan-25 12:58 100 4 gusting 7 14.4
2020-Jan-25 12:53 123 3 gusting 7 14.4
2020-Jan-25 12:48 106 4 gusting 8 14.4
2020-Jan-25 12:43 132 6 gusting 8 14.4
2020-Jan-25 12:38 117 6 gusting 10 14.4
2020-Jan-25 12:33 116 7 gusting 9 13.9
2020-Jan-25 12:28 125 6 gusting 10 13.9
2020-Jan-25 12:23 102 4 gusting 9 13.9
2020-Jan-25 12:18 139 7 gusting 9 13.9
2020-Jan-25 12:13 144 6 gusting 8 13.9
2020-Jan-25 12:08 136 6 gusting 8 13.9
2020-Jan-25 12:03 110 6 gusting 10 13.9
2020-Jan-25 11:58 105 10 gusting 11 13.9
2020-Jan-25 11:53 131 4 gusting 11 13.9
2020-Jan-25 11:48 146 6 gusting 13 13.3
2020-Jan-25 11:43 107 10 gusting 13 13.9
2020-Jan-25 11:38 103 10 gusting 10 13.3
2020-Jan-25 11:33 112 9 gusting 13 13.3
2020-Jan-25 11:28 115 8 gusting 11 13.3
2020-Jan-25 11:23 093 6 gusting 13 13.3
2020-Jan-25 11:18 110 6 gusting 13 13.3
2020-Jan-25 11:13 112 6 gusting 10 12.8
2020-Jan-25 11:08 136 6 gusting 11 12.8
2020-Jan-25 11:03 105 7 gusting 9 12.8
2020-Jan-25 10:58 104 6 gusting 11 12.8
2020-Jan-25 10:53 108 6 gusting 7 12.8
2020-Jan-25 10:48 122 3 gusting 6 12.2
2020-Jan-25 10:43 087 1 gusting 4 12.2
2020-Jan-25 10:38 225 12.2
2020-Jan-25 10:33 225 12.2
2020-Jan-25 10:28 098 0 gusting 2 12.2
2020-Jan-25 10:23 148 0 gusting 3 12.2
2020-Jan-25 10:18 142 12.2
2020-Jan-25 10:13 143 1 gusting 6 12.2
2020-Jan-25 10:08 132 3 gusting 8 12.2
2020-Jan-25 10:03 121 3 gusting 10 12.2
2020-Jan-25 09:58 108 7 gusting 9 12.2
2020-Jan-25 09:53 117 6 gusting 12 12.2
2020-Jan-25 09:48 138 5 gusting 6 12.8
2020-Jan-25 09:43 248 0 gusting 11 12.8
2020-Jan-25 09:38 149 6 gusting 12 12.2
2020-Jan-25 09:33 209 3 gusting 5 12.2
2020-Jan-25 09:28 157 2 gusting 18 12.8
2020-Jan-25 09:23 152 13 gusting 13 12.2
2020-Jan-25 09:18 263 13 gusting 14 11.7
2020-Jan-25 09:13 157 5 gusting 10 12.2
2020-Jan-25 09:08 123 3 gusting 12 12.2
2020-Jan-25 09:03 128 6 gusting 10 12.2